User: anonymous
Location: Unspecified
(0.0000°N, 0.0000°E)
Time: 06:25:31
(UTC+00:00)
Language:

Alouette 1 - Orbit

View from above orbital plane
View from above orbital plane
View from above satellite
View from above satellite

Ground track
Ground track

The orbit data is extracted from the following two-line orbital elements,

1 00424U 62049A   14203.09669604  .00000056  00000-0  54143-4 0  4785
2 00424 080.4646 236.1354 0021861 291.3320 125.8003 13.68950033586288
Epoch (UTC): 22 July 2014 02:19:14
Eccentricity: 0.0021861
inclination: 80.4646°
perigee height: 987 km
apogee height: 1019 km
right ascension of ascending node: 236.1354°
argument of perigee: 291.3320°
revolutions per day: 13.68950033
mean anomaly at epoch: 125.8003°
orbit number at epoch: 58628

The dashed part of the orbit path shows where the satellite is in the earth's shadow,  

DLR